GAOFEN 3 03

导读

高分三号03星(GAOFEN 3 03)是中国于2022年4月6日发射的合成孔径雷达卫星,隶属于中国高分专项工程。它与在轨的高分三号系列卫星组网,可实现全天时、全天候成像,能服务于海洋观测、防灾减灾、气象监测、地理测绘等领域,提升中国微波遥感数据的获取能力,支撑国民经济与生态文明建设。

基本信息
目录编号:
52200
目录名称:
GAOFEN 3 03
国际标识:
2022-035A
轨道中心:
EARTH
卫星名称:
GAOFEN 3 03
卫星全名:
--
卫星状态:
在轨 (已飞行1619 天)
发射日期:
2022-04-06 UTC
国别 :
中国 (CN)
星等 :
--
轨道信息
数据来源 国际轨道数据 AOE轨道数据
星历时间 2026-09-11T00:52:51+0800
9小时前
查看轨道信息
2026-09-07T02:00:00+0800
4天前
查看轨道信息
半长轴 7129.323km 7129.323km
偏心率 0.0001004 0.0001062
轨道倾角 98.410° 98.410°
近地点辐角 66.113° 70.648°
升交点赤经 261.055° 257.159°
平近点角 294.016° 295.571°
近地点 750.47km 750.428km
远地点 751.902km 751.944km
周期 99.846分钟 99.846分钟
每日圈数 14.422163 14.422161
详细信息
使用方式:
暂无
2D轨道图
3D轨道图
轨道高度分析图
轨道倾角分析图
轨道综合分析图
查看轨道综合分析图
交会数据列表
事件ID 空间交会对象 最接近时刻(TCA) 交会距离 交会风险概率(CRP) 交会风险指数(CRI) 操作
CDM_260911-163203-583005-220025
2026-09-11T
16:32:28+0000
2.763 km
极远距离
1.432789E-6 低风险 0.38
CDM_260912-005402-609205-220024
2026-09-12T
00:54:21+0000
2.753 km
极远距离
7.86806E-7 极低风险 0.33
与全量物体交会距离演化趋势
与全量物体交会风险概率演化趋势